Flag for U.S.A. Weather past 2 weeks in Simi Valley, California, U.S.A.

Now
65 °F

Sunny.


Feels Like: 65 °F
Forecast: 44 / 69 °F
Wind: No wind

Location: Van Nuys Airport

Current Time: Mar 4, 2015 at 11:37:48 AM

Latest Report: Mar 4, 2015 at 10:51 AM


Visibility: 10 mi

Pressure: 30.07 "Hg

Humidity: 28%

Dew point: 31 °F

Location of Simi ValleyLocation

Historic Weather in Simi Valley — Graph

°F

Simi Valley temperature yesterday

Maximum temperature yesterday: 65 °F (at 1:51 PM)
Minimum temperature yesterday: 43 °F (at 6:51 AM)
Average temperature yesterday: 54 °F

Past Weeks' High & Low Weather Summary

 TemperatureHumidityPressure
High78 °F (Feb 18, 1:51 PM)97% (Mar 3, 6:51 AM)30.25 "Hg (Mar 3, 6:51 AM)
Low43 °F (Mar 3, 6:51 AM)21% (Feb 19, 2:51 PM)29.72 "Hg (Feb 27, 6:51 PM)
Average57 °F68%29.96 "Hg
* Reported Feb 17 9:51 AM — Mar 4 9:51 AM, Simi Valley, Weather by CustomWeather, © 2015

Note: Actual official high and low records may vary slightly from our data, if they occured in-between our weather recording intervals... More about our weather records

Advertising

Simi Valley weather history for previous 24 hours

 ConditionsComfort  
Time TempWeatherWind HumidityBarometerVisibility
9:51 AM
Wed, Mar 4
63 °FSunny.3 mph35%30.07 "Hg10 mi
8:51 AM60 °FSunny.10 mph41%30.06 "Hg10 mi
7:51 AM56 °FSunny.12 mph47%30.04 "Hg10 mi
6:51 AM47 °FSunny.3 mph69%30.01 "Hg10 mi
5:51 AM47 °FClear.7 mph69%29.99 "Hg10 mi
4:51 AM44 °FClear.5 mph82%29.98 "Hg10 mi
3:51 AM45 °FClear.5 mph80%29.96 "Hg10 mi
2:51 AM46 °FClear.No wind77%29.96 "Hg10 mi
1:51 AM47 °FClear.No wind74%29.97 "Hg10 mi
12:51 AM48 °FClear.No wind71%29.96 "Hg10 mi
11:51 PM
Tue, Mar 3
51 °FClear.3 mph63%29.94 "Hg10 mi
10:51 PM51 °FClear.3 mph66%29.94 "Hg10 mi
9:51 PM53 °FClear.3 mph61%29.93 "Hg10 mi
8:51 PM54 °FClear.No wind62%29.92 "Hg10 mi
7:51 PM57 °FClear.3 mph53%29.91 "Hg10 mi
6:51 PM57 °FPassing clouds.6 mph53%29.89 "Hg10 mi
5:51 PM59 °FPassing clouds.5 mph49%29.87 "Hg10 mi
4:51 PM62 °FBroken clouds.6 mph46%29.85 "Hg10 mi
3:51 PM62 °FScattered clouds.8 mph52%29.85 "Hg10 mi
2:51 PM62 °FBroken clouds.14 mph50%29.86 "Hg10 mi
1:51 PM65 °FMore clouds than sun.3 mph39%29.86 "Hg10 mi
12:51 PM64 °FSunny.3 mph43%29.89 "Hg10 mi
11:51 AM63 °FScattered clouds.No wind45%29.92 "Hg10 mi
Weather by CustomWeather, © 2015

See weather overviewHow to use our weather pages